Photometre #853[NE_1.6_Dp] Rhyl_MO AOT

File : 20190925_853.hum

25/09/2019,07:04:28,TEMP=12.7,BA=5.52,STAT.A,ExtBa=12.80
25/09/2019,07:08:49,TEMP=12.7,BA=5.52,STAT.A,ExtBa=12.70
25/09/2019,07:13:56,TEMP=12.6,BA=5.48,STAT.A,ExtBa=12.70
25/09/2019,07:16:23,TEMP=13.0,BA=5.48,STAT.D,ExtBa=12.60
25/09/2019,07:18:23,TEMP=13.2,BA=5.48,STAT.D,ExtBa=12.60
25/09/2019,07:20:23,TEMP=13.3,BA=5.52,STAT.A,ExtBa=12.60
25/09/2019,07:24:23,TEMP=13.0,BA=5.52,STAT.D,ExtBa=12.60
25/09/2019,07:26:23,TEMP=13.4,BA=5.52,STAT.D,ExtBa=12.60
25/09/2019,07:28:22,TEMP=13.6,BA=5.52,STAT.A,ExtBa=12.60
25/09/2019,07:32:23,TEMP=13.4,BA=5.52,STAT.D,ExtBa=12.70
25/09/2019,07:36:33,TEMP=13.6,BA=5.52,STAT.A,ExtBa=12.60
25/09/2019,07:48:12,TEMP=13.9,BA=5.56,STAT.B,ExtBa=12.70
25/09/2019,07:56:47,TEMP=15.1,BA=5.52,STAT.A,ExtBa=12.60
25/09/2019,08:00:08,TEMP=15.1,BA=5.52,STAT.A,ExtBa=12.70
25/09/2019,08:07:19,TEMP=15.3,BA=5.52,STAT.A,ExtBa=12.70
25/09/2019,08:15:33,TEMP=15.6,BA=5.56,STAT.A,ExtBa=12.70
25/09/2019,08:25:07,TEMP=15.8,BA=5.60,STAT.C,ExtBa=12.70
25/09/2019,08:36:24,TEMP=16.1,BA=5.60,STAT.A,ExtBa=12.70
25/09/2019,08:48:24,TEMP=16.6,BA=5.60,STAT.D,ExtBa=12.70
25/09/2019,08:50:22,TEMP=17.1,BA=5.64,STAT.A,ExtBa=12.70
25/09/2019,09:02:24,TEMP=17.2,BA=5.64,STAT.D,ExtBa=12.80
25/09/2019,09:06:27,TEMP=17.5,BA=5.64,STAT.F,ExtBa=12.70
25/09/2019,09:18:24,TEMP=17.6,BA=5.64,STAT.D,ExtBa=12.70
25/09/2019,09:21:26,TEMP=17.8,BA=5.64,STAT.D,ExtBa=12.70
25/09/2019,09:32:24,TEMP=17.6,BA=5.64,STAT.D,ExtBa=12.80
25/09/2019,09:36:26,TEMP=17.7,BA=5.64,STAT.D,ExtBa=12.70
25/09/2019,09:48:24,TEMP=17.7,BA=5.64,STAT.D,ExtBa=13.00
25/09/2019,09:50:24,TEMP=18.2,BA=5.68,STAT.D,ExtBa=13.20
25/09/2019,09:52:22,TEMP=18.6,BA=5.68,STAT.D,ExtBa=13.20
25/09/2019,09:56:24,TEMP=18.8,BA=5.68,STAT.D,ExtBa=13.50
25/09/2019,09:58:24,TEMP=19.5,BA=5.68,STAT.D,ExtBa=13.40
25/09/2019,10:00:24,TEMP=19.8,BA=5.68,STAT.D,ExtBa=13.30
25/09/2019,10:06:28,TEMP=19.6,BA=5.68,STAT.F,ExtBa=13.10
25/09/2019,10:12:24,TEMP=19.5,BA=5.68,STAT.D,ExtBa=13.00
25/09/2019,10:21:26,TEMP=19.5,BA=5.68,STAT.D,ExtBa=13.30
25/09/2019,10:32:24,TEMP=19.3,BA=5.68,STAT.D,ExtBa=13.20
25/09/2019,10:36:26,TEMP=19.2,BA=5.68,STAT.D,ExtBa=13.10
25/09/2019,10:48:24,TEMP=18.6,BA=5.68,STAT.D,ExtBa=13.10
25/09/2019,10:51:26,TEMP=18.7,BA=5.68,STAT.D,ExtBa=13.30
25/09/2019,10:54:24,TEMP=18.9,BA=5.68,STAT.D,ExtBa=13.40
25/09/2019,10:56:24,TEMP=19.3,BA=5.68,STAT.D,ExtBa=13.30
25/09/2019,10:58:24,TEMP=19.6,BA=5.68,STAT.D,ExtBa=13.50
25/09/2019,11:00:24,TEMP=19.9,BA=5.68,STAT.D,ExtBa=13.40
25/09/2019,11:06:28,TEMP=19.7,BA=5.68,STAT.F,ExtBa=13.30
25/09/2019,11:18:24,TEMP=18.9,BA=5.68,STAT.D,ExtBa=13.10
25/09/2019,11:21:26,TEMP=18.9,BA=5.68,STAT.D,ExtBa=13.10
25/09/2019,11:24:24,TEMP=18.9,BA=5.68,STAT.D,ExtBa=13.40
25/09/2019,11:28:24,TEMP=19.2,BA=5.68,STAT.D,ExtBa=13.60
25/09/2019,11:32:24,TEMP=19.6,BA=5.68,STAT.D,ExtBa=13.30
25/09/2019,11:34:24,TEMP=20.0,BA=5.68,STAT.D,ExtBa=13.30
25/09/2019,11:36:24,TEMP=20.2,BA=5.68,STAT.D,ExtBa=13.20
25/09/2019,11:38:20,TEMP=20.2,BA=5.68,STAT.D,ExtBa=13.40
25/09/2019,11:42:24,TEMP=20.0,BA=5.64,STAT.D,ExtBa=13.60
25/09/2019,11:44:24,TEMP=20.5,BA=5.64,STAT.D,ExtBa=13.40
25/09/2019,11:46:24,TEMP=20.7,BA=5.64,STAT.D,ExtBa=13.20
25/09/2019,11:51:26,TEMP=20.2,BA=5.68,STAT.D,ExtBa=13.10
25/09/2019,12:02:24,TEMP=20.1,BA=5.68,STAT.D,ExtBa=13.60
25/09/2019,12:04:24,TEMP=20.9,BA=5.68,STAT.D,ExtBa=13.60
25/09/2019,12:06:24,TEMP=21.5,BA=5.68,STAT.D,ExtBa=13.60
25/09/2019,12:08:23,TEMP=22.0,BA=5.68,STAT.F,ExtBa=13.50
25/09/2019,12:21:26,TEMP=22.1,BA=5.68,STAT.D,ExtBa=13.00
25/09/2019,12:32:24,TEMP=20.7,BA=5.68,STAT.D,ExtBa=13.00
25/09/2019,12:36:26,TEMP=20.3,BA=5.68,STAT.D,ExtBa=12.90
25/09/2019,12:48:24,TEMP=19.0,BA=5.64,STAT.D,ExtBa=12.90
25/09/2019,12:51:26,TEMP=19.0,BA=5.64,STAT.D,ExtBa=12.90
25/09/2019,13:02:24,TEMP=18.2,BA=5.64,STAT.D,ExtBa=12.90
25/09/2019,13:06:28,TEMP=18.2,BA=5.64,STAT.F,ExtBa=12.90
25/09/2019,13:18:24,TEMP=18.0,BA=5.68,STAT.D,ExtBa=12.90
25/09/2019,13:21:26,TEMP=18.2,BA=5.64,STAT.D,ExtBa=12.80
25/09/2019,13:32:24,TEMP=17.8,BA=5.64,STAT.D,ExtBa=12.90
25/09/2019,13:36:26,TEMP=17.8,BA=5.64,STAT.D,ExtBa=12.80
25/09/2019,13:48:24,TEMP=17.6,BA=5.64,STAT.D,ExtBa=12.80
25/09/2019,13:51:26,TEMP=17.8,BA=5.64,STAT.D,ExtBa=12.80
25/09/2019,14:02:24,TEMP=17.8,BA=5.68,STAT.D,ExtBa=12.80
25/09/2019,14:06:28,TEMP=18.1,BA=5.68,STAT.F,ExtBa=12.80
25/09/2019,14:18:24,TEMP=18.4,BA=5.68,STAT.D,ExtBa=12.90
25/09/2019,14:21:26,TEMP=18.8,BA=5.68,STAT.D,ExtBa=12.90
25/09/2019,14:32:24,TEMP=18.9,BA=5.68,STAT.D,ExtBa=12.90
25/09/2019,14:36:26,TEMP=19.0,BA=5.68,STAT.D,ExtBa=12.80
25/09/2019,14:48:24,TEMP=18.8,BA=5.68,STAT.D,ExtBa=12.90
25/09/2019,14:51:26,TEMP=18.9,BA=5.68,STAT.D,ExtBa=12.80
25/09/2019,15:02:24,TEMP=18.6,BA=5.68,STAT.D,ExtBa=12.80
25/09/2019,15:06:27,TEMP=18.8,BA=5.68,STAT.F,ExtBa=12.80
25/09/2019,15:18:24,TEMP=18.6,BA=5.68,STAT.D,ExtBa=12.80
25/09/2019,15:22:55,TEMP=18.7,BA=5.68,STAT.A,ExtBa=12.80
25/09/2019,15:34:24,TEMP=18.4,BA=5.68,STAT.D,ExtBa=12.80
25/09/2019,15:36:30,TEMP=18.7,BA=5.68,STAT.A,ExtBa=12.70
25/09/2019,15:47:47,TEMP=18.0,BA=5.68,STAT.C,ExtBa=12.80
25/09/2019,15:57:21,TEMP=18.2,BA=5.68,STAT.A,ExtBa=12.80
25/09/2019,16:05:35,TEMP=18.4,BA=5.68,STAT.A,ExtBa=12.80
25/09/2019,16:12:46,TEMP=18.3,BA=5.68,STAT.A,ExtBa=12.80
25/09/2019,16:19:05,TEMP=18.3,BA=5.68,STAT.A,ExtBa=12.70
25/09/2019,16:24:42,TEMP=18.2,BA=5.64,STAT.B,ExtBa=12.70
25/09/2019,16:34:23,TEMP=18.4,BA=5.64,STAT.D,ExtBa=12.70
25/09/2019,16:36:23,TEMP=18.7,BA=5.64,STAT.A,ExtBa=12.70
25/09/2019,16:45:29,TEMP=18.2,BA=5.68,STAT.A,ExtBa=12.70
25/09/2019,16:52:52,TEMP=18.0,BA=5.68,STAT.A,ExtBa=12.70
25/09/2019,16:58:58,TEMP=17.8,BA=5.68,STAT.A,ExtBa=12.70
25/09/2019,17:04:05,TEMP=17.7,BA=5.60,STAT.A,ExtBa=12.70
25/09/2019,17:08:26,TEMP=17.6,BA=5.60,STAT.A,ExtBa=12.70